Regional Weather Roundup
Issued by NWS Jackson, KY

Current Version | Previous Version | Text Only | Print | Product List | Glossary On
Versions: 1 2 3 4 5 6 7 8 9 10 11 12 13 14 15 16 17 18 19 20 21 22 23 24 25 26 27
000
ASUS43 KJKL 261410
RWRJKL

EAST KENTUCKY HOURLY WEATHER ROUNDUP
NATIONAL WEATHER SERVICE JACKSON KY
1000 AM EDT THU MAY 26 2016

NOTE: "FAIR" INDICATES FEW OR NO CLOUDS BELOW 12,000 FEET WITH
NO SIGNIFICANT WEATHER AND/OR OBSTRUCTIONS TO VISIBILITY.

* THESE REPORTS ARE NOT UNDER NWS QUALITY CONTROL AND MAY NOT
  REPORT WEATHER SUCH AS PRECIPITATION AND FOG.

KYZ079-080-083-085-087-088-110-112-115-119-120-261500
...EASTERN KENTUCKY...

CITY           SKY/WX    TMP DP  RH WIND       PRES   REMARKS
JACKSON        LGT RAIN  65  62  90 CALM      30.19S FOG
LONDON         LGT RAIN  65  63  93 SE7       30.19F FOG
SOMERSET*      MOSUNNY   66  64  94 S6        30.17F
MONTICELLO*    MOSUNNY   71  65  81 E8        30.17S
WILLIAMSBURG*  PTSUNNY   63  63 100 SE8       30.19F
MIDDLESBORO*   DRIZZLE   67  66  96 CALM      30.22F
HARLAN APT*    CLOUDY    64  61  88 CALM      30.24R
HAZARD APT*    LGT RAIN  66  66 100 S6        30.20F
BLACK MTN*       N/A     63  59  88 CALM        N/A
PIKE CO APT*   RAIN      65  62  89 SW8G17    30.20R
BIG SANDY APT* HVY RAIN  65  64  96 SW3       30.19R
MOREHEAD APT*  CLOUDY    68  64  88 S13G20    30.17S
ASHLAND*       CLOUDY    70  66  88 W10G16    30.11S
$$

KYZ035-036-041-042-044-050-067-078-099-261500
...CENTRAL KENTUCKY...

CITY           SKY/WX    TMP DP  RH WIND       PRES   REMARKS
MT STERLING*   DRIZZLE  N/A N/A N/A SW5       30.16F
FLEMING/MASON* CLOUDY   N/A N/A N/A SW13      30.14S
DANVILLE*      LGT RAIN  64  63  94 S8        30.15F
RICHMOND*      CLOUDY    64  63  94 E3        30.15S
LEXINGTON      CLOUDY    68  63  84 S15G22    30.13F
FRANKFORT      PTSUNNY   71  63  75 S10       30.11S
LOUISVILLE     PTSUNNY   74  63  68 S13       30.08S
LEBANON*       PTSUNNY   72  64  78 S8        30.13S
GLASGOW*       SUNNY     73  63  72 SW6       30.11S
BOWLING GREEN  SUNNY     76  65  68 SW12      30.09S
$$

KYZ091>093-OHZ055-061-077-WVZ005-015-034-035-042-261500
...SOUTHERN OHIO/WEST VIRGINIA...

CITY           SKY/WX    TMP DP  RH WIND       PRES   REMARKS
COLUMBUS       CLOUDY    71  63  75 SW10      30.07F
DAYTON         PTSUNNY   72  64  76 SW10      30.06F
WILMINGTON     PTSUNNY   70  63  78 SW13      30.08F
HUNTINGTON     CLOUDY    71  64  78 SW12      30.14R
CHARLESTON     PTSUNNY   73  63  70 VRB6      30.13S
PINEVILLE*       N/A     75  58  56 MISG      30.24R
BECKLEY        PTSUNNY   71  58  63 SW6       30.21F
BLUEFIELD        N/A     68  58  70 SW6       30.24S
LOGAN CO APT*    N/A     72  64  78 SW7       30.17S
$$

VAZ002-007-008-TNZ017-027-036-066-071-261500
...SOUTHWEST VIRGINIA/EAST TENNESSEE...

CITY           SKY/WX    TMP DP  RH WIND       PRES   REMARKS
WISE*          CLOUDY    68  54  60 SW7       30.25S
JONESVILLE*    LGT RAIN  66  64  94 CALM      30.25R
ABINGDON*      CLOUDY    73  62  68 W6        30.23S
BRISTOL        PTSUNNY   73  62  68 W6        30.22R
SEVIERVILLE*   PTSUNNY   68  63  83 CALM      30.21F
KNOXVILLE      LGT RAIN  67  64  90 SE5       30.21F
OAK RIDGE      LGT RAIN  68  64  87 CALM      30.22S
CROSSVILLE     CLOUDY    70  64  81 CALM      30.22S
NASHVILLE      PTSUNNY   76  64  66 S8        30.12S
$$

...KEY TO REMARKS...
VSB - VISIBILITY IN MILES
WCI - WIND CHILL INDEX
HX  - HEAT INDEX

$$




USA.gov is the U.S. government's official web portal to all federal, state and local government web resources and services.